Powrót do katalogu

STARLINK-5059

AktywnyŁącznośćVLEO
NORAD 53912·PAYLOAD·🇺🇸 United States

Wystrzelony Sep 24, 2022 z Cape Canaveral Space Force Station

Loading…

Następne Przeloty (najbliższe 24 godziny)

TLE

ŚwieżeSource: CelesTrak SupGP

Epoka: Sep 15, 2026, 01:59 UTC

1 53912C 22119AC  26258.08312500 -.00007571  00000+0 -47489-3 0  2581
2 53912  53.1594 182.9088 0001479  85.9206 217.1220 15.08828105    10

Śledź STARLINK-5059 w czasie rzeczywistym z AllMySat

Download on the App Store